FW3145 Weather Reports


Display with metric or nautical units.
time (UTC)temp
F
wind
direction
speed
MPH
gust
MPH
rain 1hr
in
rain 24hr
in
rain mn
in
humidity
%
barometer
mb
20260503001538 44 345 0.0 0.0 0.00 0.00 0.00 78 1019.8
20260503000028 45 345 0.0 0.0 0.00 0.00 0.00 77 1020.0
20260502234528 45 345 0.0 0.0 0.00 0.00 0.00 76 1020.0
20260502233026 46 345 0.0 0.0 0.00 0.00 0.00 76 1020.1
20260502231522 46 345 0.0 0.0 0.00 0.00 0.00 75 1020.3
20260502230024 46 344 0.0 0.0 0.00 0.00 0.00 75 1020.4
20260502224518 47 344 0.0 0.0 0.00 0.00 0.00 74 1020.6
20260502223018 47 345 0.0 0.0 0.00 0.00 0.00 73 1020.5
20260502221513 48 345 0.0 0.0 0.00 0.00 0.00 72 1020.5
20260502213036 49 355 0.0 0.0 0.00 0.00 0.00 70 1020.5
20260502211534 50 5 0.0 0.0 0.00 0.00 0.00 68 1020.4
20260502210032 50 355 0.0 0.0 0.00 0.00 0.00 68 1020.3
20260502204533 51 343 0.0 0.0 0.00 0.00 0.00 67 1020.3
20260502203031 51 335 0.0 0.0 0.00 0.00 0.00 66 1020.3
20260502201528 51 327 0.0 0.0 0.00 0.00 0.00 66 1020.4
20260502200026 52 327 0.0 0.0 0.00 0.00 0.00 65 1020.4
20260502194526 53 328 0.0 0.0 0.00 0.00 0.00 63 1020.3
20260502193025 53 328 0.0 0.0 0.00 0.00 0.00 61 1020.2
20260502191524 54 325 0.0 0.0 0.00 0.00 0.00 59 1019.9
20260502190024 55 324 0.0 0.0 0.00 0.00 0.00 55 1019.7
20260502184533 57 301 0.0 0.0 0.00 0.00 0.00 51 1019.5
20260502183029 59 360 0.0 0.0 0.00 0.00 0.00 46 1019.2
20260502181522 62 294 0.0 0.0 0.00 0.00 0.00 38 1019.2
20260502163017 68 60 0.0 0.0 0.00 0.00 0.00 35 1018.7
20260502161516 68 29 0.0 0.0 0.00 0.00 0.00 35 1018.6
20260502151513 70 63 0.0 0.0 0.00 0.00 0.00 34 1018.8
20260502123056 72 320 0.0 0.0 0.00 0.00 0.00 35 1020.2
20260502121555 71 74 0.0 0.0 0.00 0.00 0.00 33 1020.3
20260502114553 71 55 0.0 0.0 0.00 0.00 0.00 34 1020.3
20260502113049 70 48 0.0 0.0 0.00 0.00 0.00 34 1020.4
20260502111550 70 34 0.0 0.0 0.00 0.00 0.00 37 1020.5
20260502110043 69 51 0.0 0.0 0.00 0.00 0.00 35 1020.7
20260502104542 68 63 0.0 0.0 0.00 0.00 0.00 35 1020.8
20260502103044 68 23 0.0 0.0 0.00 0.00 0.00 36 1020.9
20260502101545 68 59 0.0 0.0 0.00 0.00 0.00 35 1021.0
20260502091530 68 52 0.0 0.0 0.00 0.00 0.00 35 1021.2
20260502071507 63 355 0.0 0.0 0.00 0.00 0.00 45 1021.5
20260502070004 61 355 0.0 0.0 0.00 0.00 0.00 49 1021.5
20260502064500 60 196 0.0 0.0 0.00 0.00 0.00 53 1021.6
20260502063058 60 109 0.0 0.0 0.00 0.00 0.00 51 1021.6
20260502061554 57 199 0.0 0.0 0.00 0.00 0.00 55 1021.6
20260502060050 55 227 0.0 0.0 0.00 0.00 0.00 60 1021.5
20260502054549 53 349 0.0 0.0 0.00 0.00 0.00 64 1021.6
20260502053056 53 74 0.0 0.0 0.00 0.00 0.00 63 1021.4
20260502051559 52 185 0.0 0.0 0.00 0.00 0.00 63 1021.4
20260502050049 54 96 0.0 0.0 0.00 0.00 0.00 61 1021.2
20260502044544 52 78 0.0 0.0 0.00 0.00 0.00 64 1021.3
20260502043040 52 128 0.0 0.0 0.00 0.00 0.00 63 1021.2
20260502041600 53 125 0.0 0.0 0.00 0.00 0.00 62 1021.2
20260502040042 52 74 0.0 0.0 0.00 0.00 0.00 61 1021.2
20260502034536 53 255 0.0 0.0 0.00 0.00 0.00 60 1020.9
20260502033049 54 332 0.0 0.0 0.00 0.00 0.00 57 1020.9
20260502031535 53 115 0.0 0.0 0.00 0.00 0.00 58 1021.0
20260502030034 53 223 0.0 0.0 0.00 0.00 0.00 58 1020.8
20260502024535 52 321 0.0 0.0 0.00 0.00 0.00 59 1020.8
20260502023032 53 276 0.0 0.0 0.00 0.00 0.00 57 1020.8
20260502021528 54 146 0.0 0.0 0.00 0.00 0.00 55 1020.8
20260502020027 56 17 0.0 0.0 0.00 0.00 0.00 53 1020.7
20260502014529 56 325 0.0 0.0 0.00 0.00 0.00 53 1020.9
20260502013025 56 43 0.0 0.0 0.00 0.00 0.00 51 1021.0
20260502011525 56 355 0.0 0.0 0.00 0.00 0.00 50 1020.9
20260502010025 56 41 0.0 0.0 0.00 0.00 0.00 49 1021.0
20260502004523 56 5 0.0 0.0 0.00 0.00 0.00 49 1021.0
20260502003023 57 9 0.0 0.0 0.00 0.00 0.00 48 1021.1